This demonstration page uses our WeatherBlox Daily Observations layout. Learn more.

Left ArrowRight Arrow

39.08367, -84.50855

Hourly Observations for March 21, 2020

Temp ( °F °C ) Dew Point ( °F °C ) Humidity (%) Winds ( mph kmh ) Pressure ( in mb ) Visibility ( mi km ) Precip ( " mm )
12:53 am 00:53 Cloudy 40 4.4 30 -1.1 68 68 N 12 19 30.38 1029 10 16 N/A
1:12 am 01:12 Cloudy 40 4.4 30 -1.1 68 68 N 16 26 30.41 1030 10 16 N/A
1:53 am 01:53 Cloudy 38 3.3 29 -1.7 70 70 NNW 12 19 30.38 1029 10 16 N/A
2:42 am 02:42 Cloudy 37 2.8 29 -1.7 73 73 N 15 24 30.41 1030 10 16 N/A
2:53 am 02:53 Cloudy 37 2.8 29 -1.7 73 73 N 12 19 30.39 1029 10 16 N/A
3:53 am 03:53 Cloudy 37 2.8 30 -1.1 76 76 NNW 14 22 30.37 1029 10 16 N/A
4:53 am 04:53 Cloudy 37 2.8 28 -2.2 70 70 N 13 20 30.39 1029 10 16 N/A
5:53 am 05:53 Cloudy 36 2.2 27 -2.8 70 70 N 9 15 30.41 1030 10 16 N/A
6:53 am 06:53 Cloudy 36 2.2 27 -2.8 70 70 NNE 10 17 30.44 1031 10 16 N/A
7:53 am 07:53 Cloudy 35 1.7 26 -3.3 70 70 NNE 13 20 30.45 1031 10 16 N/A
8:53 am 08:53 Cloudy 36 2.2 26 -3.3 67 67 NNE 13 20 30.47 1032 10 16 N/A
9:29 am 09:29 Cloudy 36 2.2 26 -3.3 67 67 NNE 12 19 30.49 1033 10 16 N/A
9:46 am 09:46 Cloudy 36 2.2 26 -3.3 67 67 NNE 12 19 30.49 1033 10 16 N/A
9:53 am 09:53 Cloudy 36 2.2 26 -3.3 67 67 NE 13 20 30.48 1032 10 16 N/A
10:53 am 10:53 Cloudy 36 2.2 27 -2.8 70 70 N 10 17 30.50 1033 10 16 N/A
11:53 am 11:53 Cloudy 37 2.8 27 -2.8 67 67 NE 7 11 30.51 1033 10 16 N/A
12:53 pm 12:53 Cloudy 37 2.8 28 -2.2 70 70 NNE 9 15 30.51 1033 10 16 N/A
1:53 pm 13:53 Cloudy 38 3.3 27 -2.8 65 65 NNE 9 15 30.50 1033 10 16 N/A
2:53 pm 14:53 Cloudy 39 3.9 27 -2.8 62 62 NNW 6 9 30.50 1033 10 16 N/A
3:53 pm 15:53 Cloudy 38 3.3 27 -2.8 65 65 ENE 6 9 30.49 1033 10 16 N/A
4:24 pm 16:24 Cloudy 38 3.3 27 -2.8 65 65 N 6 9 30.51 1033 10 16 N/A
4:53 pm 16:53 Cloudy 39 3.9 27 -2.8 62 62 N 5 7 30.50 1033 10 16 N/A
5:53 pm 17:53 Cloudy 39 3.9 26 -3.3 60 60 N 9 15 30.50 1033 10 16 N/A
6:53 pm 18:53 Cloudy 38 3.3 25 -3.9 60 60 NNE 7 11 30.51 1033 10 16 N/A
7:53 pm 19:53 Cloudy 38 3.3 24 -4.4 57 57 NNE 6 9 30.53 1034 10 16 N/A
8:53 pm 20:53 Cloudy 37 2.8 25 -3.9 62 62 NNE 7 11 30.54 1034 10 16 N/A
9:53 pm 21:53 Cloudy 36 2.2 25 -3.9 64 64 NNE 10 17 30.55 1035 10 16 N/A
10:53 pm 22:53 Cloudy 36 2.2 25 -3.9 64 64 NNE 9 15 30.55 1035 10 16 N/A
11:53 pm 23:53 Cloudy 35 1.7 25 -3.9 67 67 NNE 9 15 30.54 1034 10 16 N/A

Powered by AerisWeather